Wind_Speed
122 122 123 123 122 123 123 124 124 124 124 124 125 125 126 126 127 127 128 129 129 130 131 132 133 134 135 136 136 137 138 138 139 139 140 141 141 142 142 142 143 143 143 143 143 143 144 144 144 145 145 145 146 146 146 146 146 146 146 146 146 146 146 146 146 146 146 146 146 146 146 146 146 146 146 146 146 145 145 145 145 145 144 144 144 143
125 125 125 125 125 125 125 126 126 126 126 127 128 128 129 129 130 131 132 132 133 134 134 135 136 137 138 138 139 140 140 141 141 142 142 143 143 143 144 144 144 145 145 145 145 145 145 145 145 146 146 146 146 147 147 147 147 147 147 147 147 147 147 147 147 147 147 147 147 147 147 147 147 147 147 146 146 146 146 146 145 145 145 144 144 144
128 128 128 128 128 127 128 128 129 129 129 130 130 131 132 132 133 134 135 136 136 137 137 138 139 139 140 141 142 142 143 143 143 144 144 144 145 145 145 145 146 146 146 147 147 147 147 147 147 147 147 147 147 147 147 147 147 147 148 148 148 148 148 148 148 148 148 148 148 148 148 148 148 147 147 147 147 146 146 146 146 146 145 145 144 144
131 131 131 131 131 131 131 131 132 132 132 133 133 134 135 135 136 137 138 138 139 139 140 140 141 141 142 143 143 144 144 144 145 145 145 145 146 146 146 146 147 147 147 148 148 148 148 148 147 147 147 147 147 148 148 148 148 148 148 148 149 149 149 149 149 149 149 149 149 149 149 149 148 148 148 148 147 147 147 146 146 146 145 145 144 144
135 134 134 134 134 134 135 135 135 135 135 136 136 137 137 137 138 139 139 140 140 141 141 142 142 143 143 144 145 145 145 146 146 146 146 146 147 147 147 148 148 148 148 149 149 149 149 148 148 148 148 148 148 148 149 149 149 149 149 149 150 150 150 150 150 150 150 150 150 150 150 150 149 149 148 148 148 148 147 147 146 146 145 144 144 143
137 137 137 136 136 136 137 137 137 137 137 138 138 139 139 139 140 140 141 141 142 142 143 143 144 144 145 145 146 146 146 147 147 147 147 148 148 148 148 149 149 149 149 149 149 149 149 149 149 149 149 149 149 150 150 150 150 150 150 151 151 151 151 151 151 151 151 151 151 151 150 150 150 149 149 149 148 148 147 146 146 145 144 143 142 140
138 138 138 137 137 138 138 138 138 138 138 139 139 140 140 141 141 142 142 143 143 144 145 145 145 146 146 146 147 147 148 148 148 149 149 149 149 149 150 150 150 150 150 150 150 151 150 150 150 150 150 151 151 151 151 151 151 151 152 152 152 152 152 152 152 152 152 152 152 151 151 151 150 150 149 149 148 147 146 145 144 143 141 140 138 137
138 139 138 138 138 139 139 139 139 140 140 140 141 141 142 143 143 144 144 144 145 145 146 146 147 147 147 148 148 148 149 149 150 150 150 150 150 151 151 151 151 151 151 152 152 152 152 152 151 152 152 152 152 152 152 152 152 152 153 153 153 153 153 153 153 153 153 153 152 152 151 151 150 149 148 147 146 145 144 142 141 139 137 136 134 132
140 140 140 140 140 140 140 141 141 142 142 142 142 143 143 144 145 145 146 146 146 147 147 147 148 148 149 149 150 150 150 150 151 151 151 151 151 151 152 152 152 152 152 153 153 153 153 153 153 153 153 153 153 153 153 153 153 153 153 154 154 154 153 153 153 153 153 153 152 152 151 150 149 147 146 145 143 141 140 138 136 134 133 131 129 127
142 142 142 142 142 142 142 142 143 144 144 144 144 144 145 145 146 146 147 148 148 148 149 149 149 150 150 151 151 151 151 152 152 152 152 152 152 152 152 153 153 153 153 154 154 154 154 153 154 154 154 154 154 154 154 154 154 154 154 154 154 154 154 154 153 153 153 152 151 150 149 147 146 144 142 140 139 137 135 133 131 129 127 126 124 123
144 144 144 144 144 145 144 145 145 146 146 146 146 146 147 147 147 147 148 149 149 150 150 150 150 151 151 152 152 152 152 152 153 153 153 153 153 153 153 154 154 154 154 154 155 155 154 154 154 154 155 155 155 155 155 155 155 155 155 155 155 154 154 153 153 152 151 150 148 147 145 143 141 139 137 135 133 131 129 127 126 124 123 121 120 119
146 146 146 146 146 147 147 147 147 147 147 147 147 148 148 149 149 149 149 149 150 151 151 151 152 152 152 152 153 153 153 153 153 153 153 154 154 154 154 154 155 155 155 155 155 155 155 155 155 155 155 155 155 155 155 155 155 155 155 154 154 153 153 152 151 149 148 146 144 142 139 137 135 133 131 129 127 125 124 122 121 120 118 117 116 115
147 148 148 148 148 148 148 149 149 149 149 149 149 149 149 150 150 150 150 150 151 151 151 152 152 153 153 153 153 154 154 154 154 154 154 154 155 155 155 155 155 155 156 156 156 156 156 156 156 156 156 156 156 156 155 155 155 154 154 153 152 151 150 148 146 144 142 140 138 135 133 131 129 127 125 123 121 120 119 118 117 116 114 113 112 111
149 149 149 149 149 149 149 149 149 149 150 150 150 150 150 150 150 150 151 151 152 152 152 153 153 154 154 154 154 154 154 154 155 155 155 155 155 155 155 156 156 156 156 156 156 156 156 156 156 156 156 156 156 155 155 154 153 152 151 150 148 147 145 143 140 138 136 133 131 129 127 125 123 121 120 118 117 116 115 114 113 111 110 109 108 107
149 149 149 149 150 150 150 150 150 150 150 150 150 150 151 151 151 151 152 152 153 153 153 154 154 155 155 155 156 156 155 155 155 155 156 156 156 156 156 156 156 156 156 156 156 156 156 155 155 155 155 155 154 153 152 151 149 148 146 144 143 140 138 136 133 131 129 127 125 123 121 120 118 117 116 114 113 112 111 109 108 107 106 104 103 102
149 149 149 149 150 150 150 150 150 150 150 151 151 151 151 152 152 153 153 153 154 154 154 155 155 156 156 157 157 156 156 156 156 156 156 156 156 156 156 156 156 156 156 156 156 156 155 154 154 153 153 152 151 149 148 146 144 142 140 138 136 133 131 129 126 124 122 121 119 118 117 116 114 113 112 110 109 108 106 105 104 103 101 100 100 99
150 150 150 150 150 150 151 151 150 151 151 151 152 152 152 153 153 154 154 154 155 155 156 156 156 157 157 158 157 157 156 156 156 156 156 156 156 156 155 155 155 155 155 155 154 154 153 152 151 150 148 147 145 143 141 139 137 134 132 130 128 126 124 122 120 119 118 116 115 114 113 111 110 109 107 106 105 103 102 101 100 99 98 98 97 96
150 150 150 150 151 151 151 151 151 152 152 152 153 153 153 154 154 155 155 155 156 156 156 157 157 157 157 158 157 157 156 155 155 156 156 156 156 155 154 154 154 153 153 152 152 150 149 147 146 144 142 140 138 136 133 131 129 127 125 123 122 120 119 117 116 115 113 112 111 109 108 107 105 104 103 102 100 99 99 98 97 96 96 95 95 95
151 151 151 151 151 152 152 152 152 152 153 153 154 154 154 155 155 155 156 156 156 156 157 157 157 157 157 157 157 156 155 155 155 155 155 155 154 154 152 151 151 150 149 148 146 145 143 141 139 137 134 132 130 128 126 124 122 120 119 118 117 116 115 113 112 110 109 107 106 104 103 101 100 99 98 98 97 96 96 95 95 95 94 93 93 92
151 152 152 152 152 152 153 153 153 153 153 154 154 154 154 155 155 155 156 156 156 156 156 156 156 156 156 156 156 155 154 153 153 153 153 153 152 151 149 147 146 145 143 141 139 137 134 132 130 128 127 125 123 121 120 118 117 116 115 114 113 112 110 109 107 105 103 102 100 99 98 97 96 96 95 95 95 94 94 93 93 92 92 91 90 90
152 152 152 152 152 152 153 153 153 153 153 153 154 154 154 155 155 155 155 155 155 155 155 155 155 155 154 154 154 153 151 151 151 150 150 149 148 146 143 141 139 137 135 133 130 128 126 124 123 121 120 119 118 117 116 115 114 112 111 110 108 107 105 103 102 100 99 97 96 95 94 94 94 93 93 93 93 92 92 91 90 90 89 88 87 86
151 151 152 152 152 152 152 152 152 152 152 152 153 153 153 153 154 154 154 154 154 154 153 153 153 152 152 151 151 149 148 147 146 145 144 143 141 138 135 132 130 128 126 124 122 120 119 118 117 117 116 115 114 114 112 111 109 108 106 105 103 101 100 98 97 96 95 94 93 92 92 92 92 92 91 91 90 90 89 88 87 86 85 84 83 82
150 150 150 150 150 151 151 151 151 151 151 151 151 151 151 152 152 152 152 152 152 151 151 150 150 149 148 147 146 144 142 140 139 137 135 134 132 129 125 123 121 120 119 117 116 115 114 114 114 113 113 112 111 109 108 106 104 102 101 99 98 96 95 94 93 92 92 91 91 91 91 90 90 90 89 88 87 86 85 84 83 81 80 79 78 77
148 148 148 148 148 148 148 148 149 149 149 149 149 149 149 149 149 149 149 149 148 148 147 146 145 144 143 141 139 137 134 132 129 127 126 124 122 120 117 116 115 114 114 113 112 112 112 111 110 110 108 107 105 104 102 100 99 97 96 95 94 93 92 91 91 90 90 90 90 89 89 88 87 86 85 84 82 81 80 79 77 76 75 74 73 72
145 146 146 146 146 146 146 146 146 146 146 146 146 146 146 146 146 145 145 144 143 142 141 140 139 138 135 133 130 128 125 122 120 118 117 116 114 113 112 111 110 111 110 110 109 109 108 107 106 104 103 101 100 98 97 95 94 93 92 92 91 91 90 90 89 89 88 88 87 86 85 84 83 81 80 79 77 76 74 73 72 71 70 69 68 67
143 143 143 143 143 143 143 143 143 143 143 142 142 142 142 141 140 140 139 138 136 135 133 132 130 128 126 123 121 119 117 115 113 112 111 110 109 109 108 107 107 108 107 107 105 104 103 102 100 99 97 96 95 93 93 92 91 90 90 90 89 89 88 88 87 86 85 84 83 82 80 79 77 76 74 73 71 70 69 68 67 66 65 64 63 62
139 139 139 139 139 139 139 139 138 138 138 137 136 136 135 134 133 132 131 129 127 125 124 123 121 119 117 115 114 112 111 109 108 107 106 106 106 106 105 104 104 104 103 102 100 99 97 96 95 94 93 92 91 91 90 90 89 89 89 88 88 87 86 85 84 82 81 79 78 76 75 73 71 70 69 67 66 65 64 63 62 61 60 60 59 59
135 134 134 134 133 133 133 132 132 131 130 129 128 127 126 125 124 123 122 120 118 117 116 114 113 112 110 109 108 107 106 105 104 104 103 103 103 103 101 100 99 98 96 95 94 93 92 92 92 91 91 90 90 89 89 88 88 87 86 86 85 83 82 81 79 77 75 73 72 70 69 67 66 65 64 63 62 61 60 59 59 58 57 56 56 56
128 127 127 126 126 125 124 123 122 122 121 120 119 118 116 116 115 114 113 112 111 110 110 109 108 107 106 105 104 103 103 102 101 100 99 99 98 97 95 94 92 91 90 90 89 89 89 89 89 89 89 89 89 88 87 86 85 84 83 82 80 79 77 75 73 71 69 67 66 64 63 62 61 60 59 59 58 58 57 56 56 55 55 54 54 54
119 118 117 117 116 115 114 114 113 112 112 111 110 110 109 108 108 107 107 106 106 106 105 104 103 102 102 101 101 100 100 98 97 95 94 93 92 90 89 88 87 86 86 86 86 87 88 88 88 88 88 87 87 85 84 83 81 80 78 77 75 73 71 69 67 65 63 62 61 60 59 58 57 57 56 56 56 55 55 55 55 54 54 54 54 54
109 108 108 107 107 107 106 106 105 105 105 105 104 104 104 103 103 103 103 102 102 101 101 100 99 98 98 97 97 97 96 93 91 89 87 86 85 84 84 84 84 84 84 84 84 85 85 86 86 85 85 84 83 82 80 78 76 74 73 71 69 67 65 63 61 59 58 57 56 56 55 55 54 54 54 54 54 54 54 54 54 54 54 54 54 54
101 101 101 101 101 100 100 100 100 100 101 101 101 100 100 99 99 99 98 98 98 97 96 96 95 94 94 93 92 91 89 87 84 82 81 81 81 81 81 82 82 82 82 82 82 82 82 82 82 82 80 80 78 77 75 73 71 69 67 65 63 61 59 57 56 55 54 54 53 53 53 53 53 53 53 53 54 54 54 54 54 54 54 54 55 55
96 96 96 96 96 97 97 97 97 97 97 97 97 97 96 96 95 95 94 94 93 93 92 92 91 90 89 88 86 84 83 80 79 78 78 78 79 80 80 80 80 80 79 79 78 78 77 77 77 77 76 75 73 72 70 68 66 64 62 60 58 56 55 54 53 52 52 52 52 52 52 52 52 52 53 53 54 54 54 55 55 55 55 55 56 56
92 92 93 93 93 93 93 94 94 94 94 94 94 93 92 92 91 91 90 90 89 89 88 87 86 85 83 81 80 79 78 77 76 76 76 77 77 78 78 77 77 76 75 74 73 73 72 72 71 71 70 69 68 66 65 63 61 59 57 55 54 53 52 51 51 51 51 51 51 51 51 52 52 53 53 54 54 55 55 56 56 56 56 56 57 57
89 89 90 90 90 90 90 90 91 91 91 91 90 89 89 88 87 87 86 86 85 85 83 82 80 79 77 76 76 75 75 75 74 74 74 74 74 74 74 73 72 71 70 69 69 68 67 67 66 65 64 64 63 61 60 58 56 55 53 52 51 51 51 50 50 50 50 51 51 51 52 52 53 53 54 55 55 56 56 57 57 57 57 57 57 58
86 86 86 87 87 87 87 87 87 87 87 87 86 86 85 84 84 83 83 82 81 79 78 76 75 74 73 73 73 73 73 73 72 72 71 71 70 70 69 68 67 66 65 64 64 63 62 61 60 60 59 58 57 57 55 54 53 52 51 50 50 50 50 50 50 50 51 51 52 52 53 54 54 55 55 56 57 57 58 58 58 58 58 58 58 58
83 83 83 84 84 84 84 84 84 84 84 83 83 82 81 81 80 80 79 77 76 74 72 71 71 71 71 71 71 71 71 70 69 68 67 66 65 64 64 63 62 61 60 59 58 58 57 56 55 54 54 53 52 52 51 51 50 50 50 49 50 50 50 50 51 51 52 53 53 54 55 55 56 56 57 57 58 58 59 59 59 59 59 59 59 58
80 80 80 81 81 81 81 80 80 80 80 79 79 79 78 77 76 75 74 72 70 69 68 68 68 69 69 69 69 68 67 66 65 64 62 61 61 60 59 58 57 56 55 54 53 52 52 51 50 49 49 49 49 49 49 49 49 49 49 49 50 50 51 52 52 53 53 54 55 56 56 57 57 57 58 58 58 59 59 59 59 59 59 59 59 58
77 77 78 78 78 77 77 77 76 76 76 76 76 75 74 73 72 70 68 67 66 66 66 67 67 67 67 66 65 64 63 62 60 59 58 57 56 55 54 53 52 51 50 49 48 48 47 47 46 46 46 46 46 47 47 47 47 48 49 50 51 52 53 53 54 55 55 56 57 57 58 58 58 58 59 59 59 59 59 59 59 59 59 59 58 58
74 74 75 75 74 74 73 73 73 73 73 73 72 72 71 69 67 65 64 63 63 64 64 65 65 65 64 63 61 60 58 57 56 55 53 52 51 50 50 49 48 47 46 45 45 44 44 44 44 44 44 44 44 45 46 47 47 48 49 50 52 53 54 55 56 56 57 58 58 59 59 59 59 59 59 59 59 59 59 59 59 59 58 58 58 57
71 71 71 71 70 70 69 69 69 69 70 69 69 68 66 64 63 61 61 61 62 62 63 63 62 61 60 58 57 55 54 53 51 50 49 48 47 47 46 45 44 43 43 42 42 42 42 42 42 42 42 42 43 44 46 47 48 49 50 51 53 54 56 57 58 58 59 59 60 60 60 60 60 60 60 60 60 59 59 59 59 59 59 58 57 57
68 68 68 67 67 66 66 66 66 66 66 66 65 63 62 60 59 59 59 60 60 61 60 60 59 57 56 54 53 51 50 49 48 47 46 45 44 43 42 41 41 41 40 40 41 41 41 41 41 41 41 42 43 45 46 48 49 50 51 52 53 55 57 58 59 60 60 61 61 61 61 61 60 60 60 60 60 60 60 60 60 59 59 58 58 57
65 65 65 64 63 63 63 63 63 63 63 62 60 59 58 57 57 58 58 58 58 58 57 56 55 53 52 50 49 48 47 46 44 44 43 42 41 40 39 39 39 39 39 39 40 40 40 40 40 41 41 43 44 46 47 49 50 51 52 53 54 56 57 59 60 61 62 62 62 62 62 61 61 61 61 61 61 61 60 60 60 60 60 59 59 58
63 62 61 61 61 60 61 61 60 60 59 58 57 56 55 56 56 56 56 56 56 55 54 53 51 50 48 47 46 45 44 43 42 41 40 39 38 38 37 37 37 38 38 38 39 39 40 40 41 42 42 44 45 47 48 49 50 52 53 54 55 56 58 60 61 62 63 63 63 63 63 62 62 61 61 61 61 61 61 61 61 61 60 60 60 59
60 59 59 58 58 58 58 58 57 56 55 54 53 53 54 54 54 54 54 54 53 51 50 49 48 46 45 44 43 42 41 40 39 38 37 37 36 36 36 36 37 37 38 38 39 40 41 42 43 43 44 45 46 47 49 50 51 52 53 55 56 57 59 60 61 62 63 64 64 64 63 62 62 61 61 61 61 61 62 62 62 62 62 61 61 60
57 57 56 56 56 56 56 55 54 53 52 51 51 52 52 53 52 52 51 50 49 48 47 46 45 44 43 42 41 40 39 38 37 36 35 35 35 35 36 36 37 37 38 39 40 41 42 43 44 45 46 47 48 48 49 50 51 53 54 56 57 58 60 61 62 62 63 64 64 64 63 62 62 61 61 61 61 62 62 63 63 63 63 63 62 61
55 55 54 54 54 54 53 52 51 50 50 50 50 51 51 51 50 50 49 47 46 45 44 43 42 41 41 40 39 38 37 36 35 34 34 34 34 35 35 36 36 37 38 39 40 42 43 44 45 46 47 47 48 50 50 51 52 53 54 56 57 59 60 61 62 62 63 63 63 63 62 62 61 61 60 61 61 62 63 64 64 64 64 63 63 62
54 53 53 52 52 51 51 50 49 48 48 49 49 49 49 49 48 47 46 45 44 43 42 41 40 40 39 38 37 36 35 35 34 34 34 34 34 34 35 36 37 38 39 40 41 43 44 45 46 46 47 48 49 50 51 52 53 54 55 56 57 59 60 61 62 62 62 62 62 62 61 61 61 60 60 60 61 62 63 64 65 65 64 64 63 62
52 52 51 51 50 49 48 47 47 47 47 48 48 48 47 46 45 44 44 43 42 41 40 40 39 38 38 37 36 35 35 34 34 34 34 34 34 35 35 36 37 38 39 41 42 44 45 46 47 47 48 48 49 51 52 53 53 54 55 56 57 59 59 60 61 61 61 61 61 61 61 60 60 60 60 60 61 61 63 64 65 65 65 64 63 62
50 50 50 49 48 47 46 46 46 46 47 47 46 46 45 44 43 43 42 41 40 40 39 38 38 37 37 36 36 35 35 34 34 34 34 34 35 35 36 37 38 39 40 42 43 44 46 47 48 48 48 49 50 51 52 53 54 54 55 56 57 58 58 59 60 60 60 60 60 60 60 60 59 59 59 59 60 61 62 63 65 65 65 64 63 62
49 49 48 47 46 46 45 45 45 45 46 45 45 44 43 42 42 41 41 40 39 39 38 38 37 37 37 36 36 35 35 34 34 34 34 35 35 36 37 38 39 40 42 43 44 45 46 48 49 50 50 49 50 51 52 53 54 54 55 56 56 57 57 58 58 59 59 60 60 60 60 59 59 59 58 59 59 60 61 63 64 65 65 64 63 62
Wind_Direction
272 273 274 274 274 275 276 276 276 277 277 277 278 278 278 279 279 279 279 280 280 280 281 281 282 282 282 283 283 284 284 284 284 285 285 285 285 285 286 286 286 286 286 286 287 287 287 287 287 288 288 288 289 289 289 289 289 290 290 290 290 290 290 291 291 291 291 292 292 292 293 293 293 293 293 294 294 294 294 294 294 294 294 294 294 294
273 273 274 274 275 275 276 276 277 277 277 277 278 278 278 279 279 279 280 280 280 280 281 281 281 282 282 282 283 283 283 283 284 284 284 284 285 285 285 285 285 286 286 286 286 286 287 287 287 287 288 288 288 288 289 289 289 289 290 290 290 290 291 291 291 291 292 292 292 292 293 293 293 293 293 293 293 293 293 294 294 294 294 294 294 294
273 273 274 274 275 275 276 276 276 277 277 277 278 278 278 279 279 279 280 280 280 280 281 281 281 281 282 282 282 282 283 283 283 283 284 284 284 284 285 285 285 285 286 286 286 286 287 287 287 287 287 288 288 288 288 289 289 289 290 290 290 291 291 291 292 292 292 292 292 293 293 293 293 293 293 293 293 293 293 293 293 293 293 293 293 293
273 273 274 274 274 275 275 276 276 276 277 277 277 278 278 278 279 279 279 280 280 280 280 281 281 281 281 281 282 282 282 283 283 283 283 284 284 284 285 285 285 285 286 286 286 286 287 287 287 288 288 288 288 289 289 289 289 290 290 290 291 291 291 292 292 292 292 292 292 292 292 293 293 293 293 293 293 293 293 293 293 293 293 293 293 293
272 273 273 274 274 274 275 275 275 276 276 277 277 277 277 278 278 278 279 279 279 280 280 280 280 281 281 281 282 282 282 282 283 283 283 284 284 284 285 285 285 286 286 286 286 287 287 287 288 288 288 289 289 289 289 290 290 290 291 291 291 291 291 292 292 292 292 292 292 292 292 293 293 293 293 293 293 293 293 293 293 293 293 293 293 293
272 272 273 273 274 274 274 275 275 275 275 276 276 276 277 277 277 278 278 278 279 279 279 280 280 280 281 281 281 282 282 282 283 283 284 284 284 285 285 285 286 286 286 286 287 287 288 288 288 289 289 289 289 290 290 290 291 291 291 291 291 291 292 292 292 292 292 292 292 292 292 292 293 293 293 293 293 293 293 293 293 293 293 293 293 293
272 272 273 273 273 273 274 274 274 275 275 275 275 276 276 276 277 277 277 278 278 279 279 279 280 280 280 281 281 282 282 283 283 283 284 284 285 285 285 286 286 286 287 287 287 288 288 288 289 289 289 290 290 290 290 291 291 291 291 291 291 291 291 292 292 292 292 292 292 292 292 292 292 292 292 292 293 293 293 293 292 292 292 292 292 292
272 272 272 272 273 273 273 274 274 274 274 275 275 276 276 276 277 277 277 278 278 279 279 279 280 280 281 281 281 282 282 283 283 284 284 285 285 285 286 286 286 287 287 287 288 288 288 289 289 289 290 290 290 290 291 291 291 291 291 291 291 291 291 291 292 292 292 292 292 292 292 292 292 292 292 292 292 292 292 292 292 292 292 292 292 292
272 272 272 273 273 273 273 274 274 274 275 275 275 276 276 277 277 277 278 278 279 279 279 280 280 281 281 281 282 282 283 283 284 284 284 285 285 286 286 286 287 287 288 288 288 289 289 289 289 290 290 290 290 290 290 291 291 291 291 291 291 291 291 291 291 291 291 292 292 292 292 292 292 292 292 292 292 292 292 292 292 291 291 291 291 291
272 272 273 273 273 273 274 274 274 275 275 275 276 276 277 277 277 278 279 279 279 280 280 280 281 281 282 282 282 283 283 284 284 284 285 285 286 286 286 287 287 287 288 288 288 289 289 289 290 290 290 290 290 290 290 290 290 290 291 291 291 291 291 291 291 291 291 291 291 291 291 291 292 292 292 292 291 291 291 291 291 291 291 291 291 291
272 272 273 273 273 274 274 274 275 275 276 276 276 277 277 278 278 279 279 280 280 280 281 281 281 282 282 282 283 283 284 284 284 285 285 286 286 286 287 287 287 288 288 288 288 289 289 289 289 290 290 290 290 290 290 290 290 290 290 290 291 291 291 291 291 291 291 291 291 291 291 291 291 291 291 291 291 291 291 291 291 291 291 290 290 290
272 272 273 273 273 274 274 275 275 275 276 276 277 277 278 278 279 279 280 280 280 281 281 281 282 282 282 283 283 284 284 284 285 285 285 286 286 286 287 287 287 288 288 288 288 289 289 289 289 289 289 289 289 290 290 290 290 290 290 290 290 290 291 291 291 291 291 291 291 291 291 291 291 291 291 291 291 291 291 291 290 290 290 290 289 289
272 272 273 273 274 274 274 275 275 276 276 277 277 278 278 279 279 279 280 280 280 281 281 281 282 282 282 283 283 284 284 284 285 285 285 286 286 286 287 287 287 287 288 288 288 288 288 289 289 289 289 289 289 289 289 290 290 290 290 290 290 290 290 290 290 290 290 290 291 291 291 291 291 291 291 291 291 290 290 290 290 289 289 289 289 288
272 273 273 274 274 274 275 275 276 276 277 277 277 278 278 279 279 279 280 280 280 281 281 281 282 282 282 283 283 284 284 284 285 285 285 286 286 286 286 287 287 287 287 288 288 288 288 288 288 289 289 289 289 289 289 289 290 290 290 290 290 290 290 290 290 290 290 290 290 290 290 291 291 291 290 290 290 290 290 289 289 289 289 288 288 288
273 273 274 274 274 275 275 276 276 276 277 277 278 278 278 279 279 279 280 280 280 281 281 281 282 282 282 283 283 284 284 284 285 285 285 285 286 286 286 286 287 287 287 287 287 288 288 288 288 288 289 289 289 289 289 289 289 289 289 289 289 289 289 289 290 290 290 290 290 290 290 290 290 290 290 290 290 289 289 289 289 288 288 288 288 287
273 273 274 274 274 275 275 276 276 277 277 277 278 278 278 279 279 279 280 280 280 281 281 281 282 282 282 283 283 283 284 284 285 285 285 285 286 286 286 286 286 287 287 287 287 288 288 288 288 288 288 288 289 289 289 289 289 289 289 289 289 289 289 289 289 290 290 290 290 290 290 290 290 290 290 290 289 289 289 289 289 288 288 288 288 287
273 273 274 274 274 275 275 276 276 276 277 277 278 278 278 279 279 279 280 280 280 281 281 281 282 282 283 283 283 284 284 284 284 285 285 285 285 286 286 286 286 287 287 287 287 288 288 288 288 288 288 288 288 288 288 288 288 288 288 288 289 289 289 289 289 290 290 290 290 290 290 290 290 290 290 289 289 289 289 289 289 288 288 288 288 288
273 273 274 274 274 275 275 276 276 276 277 277 278 278 278 279 279 279 280 280 280 281 281 281 282 282 282 283 283 284 284 284 284 285 285 285 285 286 286 286 286 287 287 287 287 288 288 288 288 288 288 288 288 288 288 288 288 288 288 288 289 289 289 289 289 289 289 290 290 290 290 290 289 289 289 289 289 289 289 289 288 288 288 288 288 288
273 273 273 274 274 275 275 276 276 276 277 277 278 278 278 279 279 279 280 280 280 281 281 281 282 282 282 283 283 283 284 284 284 285 285 285 285 286 286 287 287 287 287 287 287 287 288 288 287 287 287 287 287 287 287 288 288 288 288 288 288 289 289 289 289 289 289 289 289 289 289 289 289 289 289 289 289 289 289 288 288 288 288 288 287 287
273 273 273 274 274 275 275 275 276 276 277 277 277 278 278 279 279 279 280 280 280 281 281 281 282 282 282 283 283 283 284 284 285 285 285 285 286 286 286 287 287 287 287 287 287 287 287 287 287 287 287 287 287 287 287 288 288 288 288 288 288 288 288 289 289 289 289 289 289 289 289 289 289 289 289 289 289 288 288 288 288 288 287 287 287 287
272 273 273 274 274 274 275 275 276 276 277 277 277 278 278 278 279 279 280 280 280 281 281 281 282 282 282 283 283 284 284 284 285 285 285 286 286 286 286 287 287 287 287 287 286 286 286 286 286 286 287 287 287 287 287 288 288 288 288 288 288 288 288 288 288 289 289 289 289 289 289 289 289 289 289 289 288 288 288 288 287 287 287 287 286 286
272 272 273 273 274 274 275 275 276 276 276 277 277 278 278 278 279 279 279 280 280 280 281 281 282 282 283 283 283 284 284 285 285 285 285 286 286 286 286 286 286 286 286 286 286 286 286 286 286 286 286 287 287 287 287 287 287 287 287 287 288 288 288 288 288 289 289 289 289 289 289 289 289 289 288 288 288 288 287 287 287 287 286 286 286 286
272 272 273 273 274 274 274 275 275 276 276 277 277 277 278 278 279 279 279 280 280 281 281 282 282 282 283 283 284 284 285 285 285 285 285 285 285 286 286 286 286 286 286 286 286 286 286 286 286 286 286 286 286 286 287 287 287 287 287 287 287 287 288 288 288 289 289 289 289 289 289 289 289 288 288 288 288 287 287 287 287 287 286 286 286 286
272 272 272 273 273 274 274 275 275 276 276 277 277 277 278 278 279 279 280 280 280 281 281 282 282 283 283 283 284 284 284 285 285 285 285 285 285 285 286 286 286 286 286 286 286 286 286 286 286 286 286 286 286 286 286 286 286 286 287 287 287 288 288 288 289 289 289 289 289 289 289 289 288 288 288 288 287 287 287 287 287 287 287 286 286 286
272 272 272 273 273 274 274 275 275 276 276 277 277 277 278 278 279 279 280 280 281 281 282 282 282 283 283 283 284 284 284 285 285 285 285 285 285 285 286 286 286 286 286 286 286 286 285 285 285 285 285 285 285 286 286 286 286 286 287 287 288 288 289 289 289 289 289 289 289 289 289 288 288 288 288 288 287 287 287 287 287 287 286 286 286 286
272 272 273 273 274 274 275 275 275 276 276 277 277 278 278 279 279 279 280 280 281 281 282 282 282 283 283 283 284 284 284 285 285 285 285 285 285 286 286 286 286 286 286 285 285 285 285 285 285 285 285 285 285 285 286 286 286 287 287 288 288 289 289 289 289 289 289 289 289 289 289 288 288 288 288 288 287 287 287 287 287 286 286 286 286 286
272 272 273 273 274 274 275 275 276 276 277 277 277 278 278 279 279 279 280 280 281 281 281 282 282 283 283 284 284 284 285 285 285 285 285 286 286 286 286 286 285 285 285 285 285 285 285 285 285 285 285 285 285 285 286 286 287 287 288 288 289 289 289 289 289 289 289 289 289 289 289 288 288 288 288 287 287 287 287 287 286 286 286 286 286 286
272 273 273 274 274 275 275 275 276 276 277 277 278 278 278 279 279 279 280 280 281 281 282 282 282 283 284 284 284 285 285 285 285 286 286 286 286 286 285 285 285 285 285 285 285 284 284 284 284 284 285 285 286 286 286 287 287 288 288 288 288 288 289 289 289 289 289 289 289 289 288 288 288 288 288 287 287 287 287 287 286 286 286 286 286 285
272 273 273 274 274 275 275 275 276 276 277 277 277 278 278 278 279 279 280 281 281 281 282 282 283 284 284 285 285 285 285 285 286 286 286 286 285 285 285 285 284 284 284 284 284 284 284 284 285 285 285 286 286 286 287 287 287 288 288 288 288 288 288 289 289 289 289 289 288 288 288 288 288 288 287 287 287 287 287 287 286 286 286 286 286 285
272 273 273 274 274 275 275 275 276 276 277 277 277 278 278 279 279 280 280 281 281 282 283 283 284 284 285 285 285 285 285 285 286 286 286 285 285 285 284 284 284 284 284 284 284 284 284 285 285 285 285 286 286 286 287 287 287 287 288 288 288 288 288 289 289 289 288 288 288 288 288 288 288 287 287 287 287 287 287 287 286 286 286 286 286 285
273 273 274 274 274 275 275 276 276 276 277 277 278 278 278 279 280 280 281 281 282 283 283 284 284 285 285 285 285 285 285 285 285 285 285 285 284 284 284 283 283 284 284 284 284 284 285 285 285 285 285 285 286 286 286 287 287 287 287 288 288 288 288 288 288 288 288 288 287 287 287 287 287 287 287 287 287 286 286 286 286 286 286 285 285 285
273 273 274 274 275 275 276 276 276 277 277 278 278 279 279 280 280 281 281 282 283 283 284 284 285 285 285 285 285 285 285 285 285 285 285 284 284 284 284 284 284 284 284 284 284 284 284 284 284 285 285 285 285 286 286 287 287 287 287 287 287 287 288 287 287 287 287 287 286 286 286 286 286 286 286 285 285 285 285 285 285 285 284 284 284 284
274 274 275 275 275 276 276 277 277 277 278 278 279 279 280 280 281 282 282 283 283 284 284 285 285 285 285 285 285 285 285 285 285 285 284 284 284 284 284 284 284 284 284 284 284 283 283 283 284 284 284 285 285 286 286 287 287 287 287 287 287 287 287 287 286 286 285 285 285 285 285 284 284 284 284 284 284 284 284 283 283 283 283 282 282 282
274 275 275 276 276 276 277 277 277 278 278 279 279 280 280 281 282 282 283 283 284 284 285 285 285 285 285 285 285 285 285 285 285 285 285 285 285 285 284 284 284 284 283 283 283 283 283 283 283 284 284 285 285 286 286 287 287 287 287 287 287 287 286 286 286 285 285 285 284 284 284 284 284 284 283 283 283 283 283 282 282 282 281 281 281 281
275 275 276 276 276 277 277 278 278 278 279 279 280 281 281 282 282 283 283 284 284 285 285 285 285 285 285 284 284 285 285 286 286 286 286 285 285 284 284 284 283 283 283 283 283 283 283 283 283 284 284 285 285 286 287 287 287 288 288 288 288 287 287 286 286 286 286 285 285 285 285 285 285 285 284 284 284 283 283 283 282 282 281 281 281 280
275 276 276 276 277 277 277 278 278 279 279 280 280 281 281 282 283 283 284 284 285 285 285 285 285 284 284 285 285 286 286 286 286 286 285 285 284 284 283 283 283 283 283 283 283 283 283 283 283 283 284 284 285 286 287 287 288 288 288 288 288 288 288 287 288 288 288 287 287 287 287 287 286 286 286 285 285 285 284 284 284 283 283 282 281 281
275 276 276 276 277 277 277 278 278 279 279 280 280 281 282 282 283 284 284 284 285 285 284 284 284 285 285 286 286 287 287 286 286 285 285 284 284 283 283 283 283 283 283 282 282 282 282 283 283 283 284 284 285 286 287 288 288 288 289 289 289 289 289 289 289 289 289 289 289 289 288 288 288 287 287 287 286 286 285 285 285 284 284 283 283 282
275 276 276 276 277 277 277 278 278 279 279 280 281 281 282 283 283 284 284 284 284 284 284 285 285 285 286 286 287 287 286 286 285 285 284 284 283 283 283 283 283 283 283 282 282 282 282 282 283 283 284 285 285 286 287 288 288 289 290 290 290 290 291 291 291 291 291 290 290 290 289 289 289 288 288 288 287 287 287 286 286 285 285 284 284 283
275 275 276 276 276 277 277 278 278 279 279 280 281 282 283 283 284 284 284 284 284 284 285 285 286 286 286 287 287 286 286 286 285 285 284 284 283 283 283 283 282 282 282 282 282 282 282 283 283 284 284 285 286 286 287 288 289 290 291 292 292 292 292 292 292 292 292 291 291 291 290 290 290 290 289 289 289 289 288 288 287 287 286 286 285 284
275 275 275 276 276 277 277 278 278 279 280 281 282 282 283 283 283 283 284 284 284 285 285 286 286 287 287 287 287 286 285 285 285 284 284 283 283 283 283 282 282 282 282 282 282 282 282 283 283 284 285 286 287 288 289 290 290 292 293 293 293 294 294 293 293 293 293 292 292 292 292 292 291 291 291 291 291 291 290 290 289 289 288 288 287 287
275 275 275 276 276 277 277 278 279 279 280 281 282 283 283 283 283 283 284 284 285 285 286 286 287 287 287 287 286 286 285 285 284 284 284 283 283 283 282 282 282 282 282 282 282 282 283 283 284 285 286 287 288 289 290 291 292 293 293 294 294 294 294 294 294 294 294 294 293 293 293 293 293 293 293 293 293 293 292 292 292 291 291 290 290 289
275 275 276 276 277 277 278 278 279 280 281 282 282 282 282 283 283 283 284 285 285 286 286 287 287 287 287 287 286 285 285 284 284 284 283 283 282 282 282 281 281 281 281 282 282 283 283 284 285 286 286 287 289 289 290 291 292 293 293 294 294 295 295 295 295 295 295 295 295 295 295 295 295 295 296 295 295 295 295 294 294 293 293 292 291 291
275 275 276 276 277 278 278 279 280 280 281 281 281 282 282 282 283 283 284 285 286 286 287 287 287 287 286 286 286 285 284 284 284 283 283 282 282 281 281 281 281 281 282 282 283 283 284 285 285 286 288 289 289 290 291 292 293 294 294 295 296 296 296 297 297 297 297 296 296 296 297 297 297 297 297 297 297 297 296 296 295 295 294 293 293 292
276 276 276 277 278 278 279 280 280 280 280 281 281 281 281 282 283 283 284 285 286 287 287 287 286 286 286 286 285 285 284 284 283 283 282 281 281 281 281 281 281 282 282 283 283 284 285 286 287 288 289 290 291 291 292 293 294 295 296 297 297 298 298 298 298 298 298 297 297 298 298 298 298 298 298 298 298 298 297 297 296 295 295 294 294 293
276 277 277 278 278 279 279 280 280 280 280 280 280 280 281 281 283 284 285 286 286 286 286 286 286 286 286 286 285 284 284 283 282 282 281 281 281 281 281 281 282 282 283 284 285 286 287 288 289 290 291 292 293 294 294 295 296 297 298 298 298 298 298 298 298 298 298 298 298 298 299 299 299 299 299 299 299 299 298 298 297 296 296 295 295 295
277 277 278 278 279 280 280 280 280 279 279 279 279 279 280 281 283 284 285 286 286 286 286 286 286 286 286 285 285 284 283 282 281 281 281 281 281 281 282 283 283 284 285 286 287 288 289 290 291 292 293 294 295 295 296 297 298 298 299 299 299 298 298 298 298 298 298 298 298 299 299 299 300 300 300 300 300 299 299 298 298 297 297 296 296 296
278 278 279 279 280 280 280 280 279 278 278 278 278 279 280 281 283 284 285 285 285 285 285 286 286 286 285 285 284 283 282 281 281 280 280 281 281 282 283 283 284 286 287 288 289 290 290 291 292 293 295 296 296 297 297 297 298 298 298 299 298 298 298 298 298 298 298 298 299 299 299 300 300 300 300 300 300 300 299 299 298 297 297 297 297 297
278 279 279 280 281 280 280 279 278 277 276 277 277 278 280 281 283 284 284 285 285 285 285 285 285 285 284 284 283 282 282 281 281 280 280 280 281 282 283 284 285 286 287 288 289 290 291 292 293 294 295 296 297 297 298 298 298 298 298 298 298 298 298 298 298 298 299 299 299 299 300 300 300 301 301 301 300 300 299 299 298 297 297 297 297 297
279 279 280 281 280 280 278 277 276 275 275 275 276 278 280 281 282 283 284 284 284 284 284 285 284 284 284 283 283 282 282 281 281 280 280 281 281 282 283 284 285 286 287 288 289 290 291 292 293 294 295 296 297 297 297 298 298 298 298 298 298 298 298 298 298 299 299 299 299 300 300 300 301 301 301 301 301 300 300 299 298 298 297 297 298 298
279 280 280 280 279 278 276 274 273 273 273 275 276 278 279 281 282 282 283 283 283 284 284 284 284 284 283 283 283 282 282 282 281 281 281 282 282 283 284 285 286 287 288 289 290 291 292 293 294 295 295 296 297 297 297 298 298 298 298 298 298 298 298 299 299 299 300 300 300 300 301 301 301 301 301 301 301 300 299 299 298 298 297 298 298 298
279 280 280 279 277 275 273 272 271 272 273 274 276 278 279 280 281 281 282 282 283 283 283 283 283 283 283 283 283 282 282 282 281 281 282 283 284 285 286 287 288 289 290 291 292 294 295 296 297 297 296 296 297 297 298 298 298 298 299 299 299 299 299 300 300 300 301 301 301 301 301 302 302 302 301 301 301 300 300 299 298 298 298 298 298 298
Height
10571 10569 10569 10570 10571 10570 10569 10568 10569 10569 10569 10568 10566 10566 10566 10566 10564 10562 10561 10561 10560 10558 10556 10554 10552 10550 10548 10546 10544 10542 10541 10540 10539 10538 10536 10534 10533 10532 10531 10529 10528 10526 10524 10523 10521 10520 10519 10518 10514 10511 10509 10508 10506 10504 10503 10501 10498 10496 10494 10492 10490 10488 10486 10483 10481 10479 10476 10474 10472 10469 10468 10465 10463 10461 10459 10457 10454 10453 10451 10448 10446 10444 10442 10439 10438 10435
10564 10563 10563 10563 10563 10563 10562 10560 10560 10561 10561 10560 10558 10558 10558 10558 10556 10554 10553 10552 10551 10550 10549 10547 10545 10543 10542 10540 10538 10536 10534 10533 10532 10530 10529 10528 10526 10524 10523 10521 10519 10517 10515 10514 10512 10511 10510 10509 10508 10505 10503 10500 10498 10496 10494 10492 10489 10487 10485 10483 10480 10478 10476 10473 10471 10468 10466 10464 10462 10459 10458 10455 10453 10451 10449 10447 10445 10443 10441 10439 10436 10434 10432 10430 10428 10426
10558 10558 10556 10556 10556 10556 10555 10553 10552 10553 10553 10552 10550 10549 10549 10548 10547 10545 10544 10543 10543 10541 10540 10539 10538 10536 10534 10532 10529 10528 10527 10525 10524 10522 10521 10519 10518 10516 10514 10513 10511 10509 10506 10504 10503 10501 10501 10499 10498 10497 10494 10493 10490 10488 10486 10483 10481 10478 10476 10473 10471 10468 10466 10463 10461 10458 10456 10454 10451 10449 10447 10445 10443 10441 10439 10438 10435 10433 10431 10429 10426 10424 10422 10420 10418 10415
10551 10551 10550 10549 10548 10549 10548 10546 10545 10545 10545 10544 10543 10541 10541 10539 10538 10536 10535 10534 10534 10533 10531 10529 10528 10527 10525 10523 10521 10519 10518 10516 10515 10513 10512 10510 10508 10507 10505 10503 10501 10499 10497 10495 10493 10492 10491 10489 10488 10487 10485 10483 10481 10479 10476 10474 10471 10468 10466 10463 10460 10458 10455 10453 10450 10448 10446 10443 10441 10439 10437 10434 10433 10431 10429 10427 10425 10423 10421 10418 10416 10414 10411 10409 10406 10404
10544 10544 10543 10542 10541 10541 10540 10539 10539 10538 10538 10536 10534 10534 10533 10531 10530 10529 10527 10526 10525 10524 10522 10520 10519 10518 10516 10514 10512 10509 10508 10506 10505 10504 10503 10501 10499 10498 10495 10493 10491 10489 10488 10486 10484 10483 10481 10479 10478 10477 10474 10473 10470 10468 10466 10463 10461 10458 10455 10453 10450 10447 10444 10442 10439 10437 10435 10433 10431 10428 10426 10424 10422 10420 10418 10416 10414 10412 10409 10407 10405 10403 10400 10398 10395 10393
10535 10536 10536 10535 10534 10533 10532 10531 10531 10531 10530 10528 10527 10526 10525 10524 10523 10521 10520 10518 10517 10515 10514 10512 10510 10509 10507 10505 10503 10501 10499 10498 10496 10494 10493 10491 10490 10488 10486 10484 10482 10480 10478 10476 10474 10473 10471 10469 10468 10466 10464 10462 10459 10457 10454 10452 10449 10447 10444 10442 10439 10436 10434 10431 10429 10426 10424 10422 10419 10418 10415 10413 10411 10409 10407 10405 10403 10401 10398 10396 10394 10392 10389 10387 10384 10382
10527 10528 10528 10528 10526 10525 10524 10523 10523 10523 10522 10521 10519 10518 10516 10516 10515 10514 10513 10511 10509 10508 10506 10504 10502 10500 10498 10497 10494 10493 10490 10488 10486 10485 10484 10482 10481 10479 10477 10474 10473 10470 10468 10466 10464 10463 10461 10459 10458 10456 10454 10451 10449 10446 10444 10441 10439 10436 10434 10431 10429 10426 10424 10421 10418 10416 10413 10411 10409 10406 10404 10403 10401 10398 10396 10394 10392 10390 10388 10385 10383 10381 10378 10376 10374 10371
10519 10519 10519 10519 10518 10518 10516 10514 10514 10514 10514 10513 10512 10509 10508 10506 10506 10505 10504 10503 10501 10499 10498 10496 10493 10491 10489 10488 10486 10484 10483 10479 10478 10476 10474 10473 10471 10469 10468 10466 10463 10461 10458 10456 10454 10453 10451 10449 10448 10446 10443 10441 10438 10436 10433 10431 10428 10426 10423 10421 10418 10416 10413 10411 10408 10406 10403 10400 10398 10396 10394 10392 10389 10388 10386 10383 10381 10379 10377 10374 10372 10369 10367 10365 10363 10361
10512 10511 10510 10509 10509 10509 10509 10506 10504 10503 10504 10506 10504 10502 10499 10498 10496 10496 10494 10493 10491 10490 10488 10487 10485 10482 10479 10477 10477 10476 10474 10471 10469 10467 10466 10464 10462 10460 10458 10456 10454 10451 10449 10446 10444 10443 10441 10439 10437 10435 10433 10430 10428 10425 10423 10420 10418 10415 10413 10411 10408 10404 10403 10401 10398 10395 10393 10390 10388 10385 10383 10381 10379 10377 10375 10373 10371 10368 10366 10363 10361 10359 10356 10354 10352 10350
10503 10503 10502 10501 10500 10501 10501 10499 10496 10494 10494 10496 10496 10494 10490 10489 10488 10486 10484 10482 10480 10479 10479 10478 10476 10473 10469 10466 10465 10465 10464 10463 10460 10458 10456 10454 10453 10451 10449 10446 10444 10441 10439 10436 10434 10432 10431 10429 10427 10424 10423 10420 10418 10415 10413 10410 10408 10405 10403 10400 10397 10394 10392 10389 10387 10384 10382 10379 10377 10375 10373 10371 10368 10366 10364 10362 10359 10357 10354 10353 10350 10348 10346 10343 10341 10339
10494 10493 10493 10493 10492 10491 10491 10491 10489 10486 10485 10486 10486 10484 10481 10479 10479 10478 10476 10473 10469 10468 10468 10468 10466 10463 10460 10458 10455 10453 10453 10453 10451 10449 10446 10445 10444 10442 10439 10437 10434 10432 10429 10427 10424 10422 10421 10419 10416 10414 10412 10409 10407 10404 10402 10399 10397 10394 10392 10389 10387 10384 10381 10379 10376 10373 10371 10369 10366 10364 10362 10360 10358 10356 10353 10351 10349 10346 10344 10342 10339 10337 10335 10333 10331 10328
10486 10484 10484 10484 10483 10482 10481 10480 10479 10478 10478 10478 10476 10474 10471 10469 10468 10469 10469 10466 10461 10457 10456 10456 10455 10453 10450 10449 10447 10444 10443 10442 10441 10440 10438 10436 10434 10432 10429 10428 10425 10423 10419 10417 10415 10413 10411 10409 10407 10404 10401 10399 10396 10394 10391 10389 10386 10384 10382 10379 10377 10374 10371 10368 10365 10363 10360 10358 10356 10354 10352 10349 10348 10345 10343 10341 10338 10336 10334 10331 10329 10327 10324 10323 10320 10318
10477 10476 10476 10475 10474 10473 10471 10471 10470 10469 10468 10468 10467 10466 10463 10460 10459 10459 10459 10457 10453 10449 10447 10447 10445 10443 10439 10438 10438 10438 10435 10433 10431 10429 10428 10427 10425 10422 10419 10418 10416 10413 10410 10408 10406 10403 10401 10399 10397 10394 10391 10388 10385 10383 10381 10378 10376 10374 10371 10369 10366 10363 10360 10357 10354 10352 10350 10348 10346 10344 10341 10339 10337 10335 10333 10331 10329 10326 10324 10321 10319 10317 10314 10313 10311 10309
10468 10467 10467 10466 10465 10463 10461 10461 10461 10461 10459 10457 10456 10456 10455 10453 10450 10449 10449 10446 10443 10440 10438 10438 10437 10434 10429 10428 10428 10428 10427 10425 10423 10421 10419 10418 10415 10413 10411 10409 10407 10403 10400 10398 10396 10394 10391 10389 10388 10385 10381 10378 10374 10373 10370 10368 10366 10363 10361 10358 10355 10352 10349 10347 10344 10342 10340 10338 10336 10334 10331 10329 10327 10325 10323 10321 10318 10316 10314 10311 10309 10307 10305 10303 10301 10299
10459 10459 10459 10458 10456 10453 10453 10453 10453 10452 10449 10448 10447 10447 10446 10444 10441 10439 10438 10437 10434 10431 10429 10429 10428 10424 10420 10418 10418 10419 10419 10417 10414 10411 10409 10407 10405 10403 10401 10401 10398 10394 10390 10388 10386 10384 10381 10379 10377 10374 10371 10368 10364 10362 10359 10357 10355 10353 10350 10347 10344 10341 10339 10337 10335 10333 10331 10329 10326 10324 10322 10319 10318 10315 10313 10311 10308 10306 10303 10301 10299 10297 10295 10293 10291 10289
10451 10450 10450 10449 10447 10444 10444 10444 10444 10443 10441 10439 10438 10437 10437 10435 10432 10429 10428 10428 10426 10423 10421 10419 10418 10414 10411 10408 10408 10409 10410 10409 10406 10403 10399 10396 10394 10393 10391 10391 10389 10385 10380 10378 10376 10374 10371 10369 10366 10364 10361 10357 10354 10351 10349 10346 10344 10342 10339 10337 10334 10332 10329 10328 10326 10324 10321 10319 10317 10315 10313 10310 10308 10305 10303 10301 10298 10296 10294 10291 10289 10288 10286 10284 10283 10281
10442 10442 10441 10440 10438 10436 10435 10434 10435 10434 10433 10430 10428 10428 10426 10425 10423 10421 10419 10418 10416 10414 10412 10410 10408 10405 10402 10399 10396 10396 10398 10400 10399 10395 10390 10386 10384 10382 10381 10381 10380 10376 10371 10367 10365 10363 10361 10358 10356 10353 10349 10346 10343 10341 10338 10336 10334 10332 10329 10327 10325 10323 10321 10319 10317 10314 10313 10311 10308 10306 10304 10301 10298 10296 10294 10291 10289 10286 10284 10283 10281 10279 10277 10275 10274 10272
10433 10433 10433 10432 10430 10428 10426 10426 10426 10425 10424 10421 10420 10418 10417 10416 10414 10413 10411 10408 10406 10404 10402 10400 10398 10396 10394 10391 10388 10386 10386 10388 10389 10386 10381 10377 10373 10371 10371 10371 10369 10366 10361 10358 10354 10352 10350 10348 10344 10341 10338 10335 10333 10330 10328 10326 10324 10323 10320 10318 10316 10314 10311 10309 10308 10306 10304 10302 10299 10298 10295 10293 10290 10288 10285 10283 10280 10278 10276 10274 10272 10270 10269 10267 10265 10264
10425 10424 10423 10423 10423 10420 10418 10418 10417 10416 10414 10413 10411 10409 10408 10406 10404 10403 10401 10399 10397 10394 10393 10391 10389 10386 10383 10381 10379 10378 10377 10378 10378 10376 10371 10367 10363 10361 10360 10359 10358 10355 10351 10347 10344 10342 10340 10337 10333 10330 10327 10324 10322 10320 10318 10317 10315 10313 10311 10309 10307 10305 10303 10301 10299 10297 10295 10293 10291 10289 10287 10284 10282 10279 10277 10274 10273 10270 10268 10266 10264 10263 10261 10259 10257 10255
10417 10415 10414 10414 10414 10413 10411 10409 10407 10406 10406 10405 10403 10401 10399 10398 10395 10393 10391 10389 10387 10385 10384 10382 10379 10377 10374 10372 10370 10368 10368 10368 10368 10366 10361 10357 10354 10351 10349 10348 10347 10344 10340 10336 10334 10332 10330 10326 10323 10319 10317 10315 10313 10311 10309 10308 10306 10304 10303 10300 10298 10296 10294 10293 10291 10289 10287 10285 10283 10281 10279 10277 10274 10272 10269 10267 10264 10263 10261 10258 10256 10254 10253 10251 10249 10247
10409 10408 10406 10405 10405 10404 10403 10400 10398 10397 10398 10397 10396 10393 10390 10388 10386 10384 10382 10380 10378 10376 10374 10372 10370 10368 10366 10364 10361 10359 10358 10358 10358 10355 10351 10348 10344 10341 10339 10338 10336 10334 10329 10326 10324 10322 10320 10317 10314 10311 10308 10306 10304 10302 10301 10299 10298 10296 10294 10292 10290 10288 10286 10284 10283 10281 10279 10278 10276 10274 10272 10269 10267 10264 10262 10259 10257 10255 10253 10251 10249 10247 10245 10243 10241 10239
10401 10399 10398 10396 10396 10396 10395 10393 10390 10389 10389 10388 10387 10384 10381 10379 10377 10375 10373 10371 10368 10367 10365 10363 10361 10358 10357 10355 10353 10350 10348 10348 10348 10346 10343 10339 10335 10331 10329 10328 10327 10324 10319 10316 10314 10313 10311 10308 10305 10302 10300 10298 10296 10294 10292 10291 10289 10287 10286 10284 10282 10280 10279 10277 10276 10274 10273 10271 10269 10266 10264 10262 10259 10256 10254 10252 10249 10247 10245 10243 10241 10239 10237 10236 10234 10233
10393 10391 10389 10388 10388 10387 10386 10384 10383 10381 10381 10379 10378 10376 10373 10370 10368 10366 10364 10361 10359 10358 10356 10354 10351 10349 10348 10346 10343 10341 10339 10339 10338 10336 10334 10330 10326 10322 10320 10319 10318 10314 10310 10307 10305 10304 10301 10299 10296 10294 10292 10289 10287 10285 10284 10283 10281 10279 10278 10276 10274 10273 10271 10270 10269 10268 10266 10264 10261 10259 10256 10254 10251 10249 10246 10244 10242 10239 10238 10235 10234 10232 10230 10229 10227 10226
10384 10383 10381 10380 10379 10379 10378 10376 10375 10374 10372 10371 10369 10367 10364 10362 10360 10358 10355 10353 10351 10349 10347 10345 10343 10341 10338 10336 10334 10333 10331 10329 10329 10327 10324 10321 10317 10314 10312 10311 10308 10305 10301 10298 10296 10295 10292 10289 10286 10285 10283 10281 10279 10278 10276 10274 10273 10272 10270 10269 10268 10266 10265 10263 10262 10261 10259 10256 10254 10251 10249 10246 10244 10241 10239 10236 10234 10233 10231 10229 10227 10225 10224 10223 10221 10219
10376 10374 10374 10373 10371 10370 10369 10368 10367 10365 10364 10362 10360 10358 10356 10354 10351 10349 10347 10344 10343 10341 10339 10336 10334 10331 10329 10328 10326 10324 10321 10321 10319 10318 10315 10312 10309 10306 10304 10303 10300 10297 10293 10289 10288 10286 10283 10280 10278 10276 10274 10273 10271 10269 10268 10267 10266 10264 10264 10262 10261 10259 10258 10257 10255 10253 10251 10249 10246 10244 10241 10239 10236 10234 10232 10229 10228 10226 10224 10223 10221 10219 10218 10216 10215 10213
10368 10366 10366 10364 10363 10362 10361 10360 10358 10357 10355 10354 10352 10349 10348 10345 10343 10340 10338 10336 10334 10333 10331 10328 10325 10323 10321 10319 10318 10315 10313 10312 10311 10309 10307 10304 10301 10298 10296 10294 10291 10288 10284 10281 10279 10277 10274 10271 10269 10268 10266 10264 10263 10263 10261 10260 10259 10258 10257 10256 10254 10253 10251 10250 10248 10246 10244 10241 10239 10236 10234 10232 10229 10228 10225 10223 10221 10219 10218 10216 10215 10214 10213 10211 10209 10208
10359 10358 10358 10356 10355 10354 10353 10351 10350 10349 10347 10345 10343 10342 10339 10338 10334 10332 10329 10327 10326 10324 10323 10319 10317 10314 10313 10311 10309 10307 10305 10304 10302 10301 10299 10297 10294 10291 10287 10285 10283 10280 10276 10273 10271 10269 10266 10264 10261 10259 10258 10257 10256 10256 10254 10254 10253 10251 10250 10249 10248 10246 10244 10243 10241 10239 10236 10234 10232 10229 10228 10225 10223 10221 10219 10217 10216 10214 10213 10211 10209 10208 10207 10206 10204 10203
10351 10351 10349 10349 10348 10346 10345 10343 10342 10340 10339 10337 10335 10334 10332 10329 10327 10324 10321 10319 10318 10317 10314 10312 10309 10308 10306 10304 10301 10299 10298 10296 10294 10293 10291 10289 10286 10283 10279 10277 10274 10272 10269 10266 10264 10261 10259 10256 10254 10252 10251 10249 10249 10249 10248 10247 10246 10245 10244 10243 10241 10239 10238 10236 10234 10232 10230 10228 10226 10223 10221 10219 10217 10215 10213 10211 10210 10208 10207 10206 10204 10203 10202 10201 10199 10198
10344 10343 10342 10341 10339 10338 10337 10336 10334 10333 10331 10329 10328 10326 10323 10321 10319 10316 10314 10312 10311 10309 10306 10304 10303 10301 10299 10296 10294 10291 10289 10288 10286 10286 10284 10281 10278 10274 10272 10269 10267 10264 10263 10260 10257 10254 10251 10249 10247 10245 10244 10243 10242 10241 10241 10241 10240 10239 10238 10236 10234 10233 10231 10229 10228 10226 10224 10222 10219 10218 10216 10214 10212 10210 10208 10206 10204 10203 10202 10201 10199 10199 10198 10196 10195 10194
10336 10335 10334 10333 10332 10331 10329 10328 10326 10324 10323 10321 10319 10318 10316 10314 10312 10309 10308 10306 10304 10302 10299 10297 10295 10294 10292 10289 10286 10284 10281 10280 10279 10279 10277 10274 10270 10267 10264 10262 10259 10258 10256 10254 10251 10248 10245 10243 10241 10239 10237 10236 10235 10234 10234 10234 10234 10233 10231 10229 10228 10226 10225 10224 10222 10220 10218 10216 10214 10212 10210 10208 10206 10205 10203 10201 10200 10198 10197 10196 10194 10194 10193 10192 10191 10189
10329 10328 10326 10325 10324 10323 10321 10320 10318 10317 10315 10313 10311 10310 10308 10307 10305 10303 10301 10299 10297 10294 10293 10290 10288 10287 10285 10283 10279 10276 10274 10273 10273 10272 10270 10266 10263 10260 10258 10255 10253 10251 10250 10248 10246 10243 10239 10236 10234 10233 10231 10229 10228 10228 10228 10228 10228 10227 10226 10224 10223 10221 10220 10218 10217 10215 10213 10211 10209 10207 10206 10204 10202 10200 10199 10197 10196 10194 10193 10191 10190 10189 10189 10188 10186 10185
10321 10320 10319 10318 10316 10315 10314 10312 10311 10309 10308 10306 10304 10303 10301 10300 10298 10296 10294 10293 10290 10288 10286 10284 10282 10280 10278 10275 10273 10269 10267 10266 10266 10265 10263 10259 10256 10253 10251 10249 10247 10245 10244 10243 10240 10237 10234 10231 10228 10226 10225 10224 10223 10222 10222 10222 10221 10221 10220 10219 10218 10216 10215 10213 10212 10210 10208 10206 10204 10203 10201 10199 10198 10196 10194 10193 10191 10190 10188 10188 10186 10186 10184 10184 10183 10181
10314 10313 10311 10310 10309 10308 10306 10304 10303 10301 10299 10298 10296 10295 10294 10293 10291 10290 10288 10286 10284 10282 10279 10278 10275 10273 10271 10268 10266 10263 10261 10260 10259 10258 10256 10253 10249 10246 10244 10243 10241 10239 10238 10236 10234 10232 10229 10226 10223 10221 10219 10218 10217 10216 10216 10216 10216 10216 10214 10214 10213 10211 10210 10208 10207 10205 10204 10202 10200 10199 10197 10196 10194 10193 10191 10189 10188 10186 10184 10183 10182 10181 10180 10179 10178 10177
10307 10306 10304 10303 10302 10300 10299 10298 10296 10294 10292 10291 10289 10288 10288 10286 10285 10283 10281 10279 10278 10276 10273 10271 10269 10266 10264 10261 10259 10257 10255 10254 10253 10251 10249 10246 10243 10240 10238 10236 10234 10233 10232 10230 10228 10226 10224 10221 10219 10216 10214 10213 10212 10211 10211 10211 10211 10210 10209 10208 10208 10206 10204 10203 10202 10201 10199 10198 10196 10194 10193 10191 10189 10188 10186 10184 10183 10181 10180 10179 10178 10176 10176 10174 10173 10172
10300 10299 10298 10296 10295 10293 10292 10290 10289 10287 10285 10284 10283 10281 10281 10279 10278 10277 10275 10273 10271 10269 10268 10265 10263 10260 10258 10255 10253 10251 10249 10248 10247 10245 10243 10239 10237 10234 10232 10230 10229 10227 10226 10224 10223 10221 10219 10216 10214 10213 10211 10209 10207 10206 10206 10206 10205 10205 10204 10203 10202 10201 10199 10198 10197 10196 10194 10193 10191 10189 10188 10186 10184 10183 10181 10179 10178 10176 10174 10173 10172 10171 10170 10169 10168 10167
10293 10292 10291 10289 10288 10286 10285 10284 10282 10281 10279 10278 10276 10275 10274 10273 10272 10271 10269 10267 10265 10263 10261 10259 10257 10254 10252 10249 10248 10246 10244 10243 10241 10239 10236 10233 10231 10228 10226 10224 10223 10222 10221 10219 10217 10216 10214 10212 10211 10209 10207 10206 10204 10203 10201 10201 10201 10200 10199 10198 10197 10196 10194 10193 10192 10191 10189 10188 10186 10184 10183 10181 10179 10178 10176 10174 10173 10171 10169 10168 10166 10164 10164 10163 10162 10161
10286 10285 10284 10283 10281 10280 10278 10277 10276 10274 10273 10271 10270 10269 10268 10267 10266 10264 10263 10261 10259 10257 10255 10253 10251 10249 10246 10244 10243 10240 10238 10236 10234 10233 10230 10228 10225 10223 10221 10219 10218 10217 10216 10214 10213 10211 10209 10208 10206 10205 10204 10202 10201 10199 10198 10197 10196 10196 10195 10194 10192 10191 10189 10188 10187 10186 10184 10182 10180 10179 10177 10175 10174 10172 10170 10168 10167 10165 10163 10161 10160 10159 10158 10156 10156 10155
10280 10279 10278 10276 10275 10274 10273 10271 10269 10268 10267 10266 10264 10263 10263 10261 10260 10259 10257 10255 10253 10251 10249 10248 10245 10243 10241 10239 10238 10235 10233 10231 10229 10227 10224 10223 10220 10218 10217 10215 10213 10212 10211 10210 10208 10207 10206 10204 10203 10202 10201 10199 10198 10196 10195 10194 10193 10191 10190 10189 10188 10186 10184 10183 10181 10180 10179 10177 10175 10173 10171 10170 10168 10166 10164 10163 10161 10159 10157 10156 10154 10153 10151 10150 10149 10148
10274 10273 10271 10270 10269 10268 10267 10266 10264 10263 10262 10260 10259 10258 10257 10256 10254 10253 10251 10249 10248 10246 10244 10242 10240 10238 10236 10234 10233 10230 10228 10226 10223 10221 10220 10218 10216 10214 10213 10211 10209 10208 10207 10206 10204 10203 10202 10201 10200 10199 10198 10196 10194 10193 10192 10190 10189 10188 10186 10184 10183 10181 10179 10178 10176 10174 10173 10171 10169 10168 10166 10164 10163 10161 10159 10157 10155 10153 10151 10149 10148 10146 10144 10143 10142 10141
10268 10266 10265 10264 10263 10263 10261 10260 10259 10258 10256 10255 10254 10253 10251 10250 10249 10248 10246 10244 10243 10241 10239 10237 10235 10233 10231 10229 10228 10225 10223 10221 10219 10217 10215 10213 10212 10210 10209 10207 10206 10204 10203 10202 10201 10200 10199 10198 10197 10196 10195 10194 10192 10190 10188 10187 10186 10184 10183 10181 10178 10176 10174 10172 10171 10169 10168 10166 10164 10161 10159 10158 10156 10155 10153 10151 10149 10147 10145 10143 10141 10139 10138 10136 10135 10134
10261 10260 10259 10259 10258 10257 10256 10255 10254 10252 10251 10249 10248 10247 10246 10244 10243 10242 10241 10239 10238 10236 10234 10232 10230 10228 10226 10224 10223 10221 10218 10216 10214 10213 10211 10209 10208 10206 10205 10204 10203 10201 10200 10199 10198 10197 10196 10195 10194 10193 10193 10191 10189 10187 10185 10183 10182 10181 10179 10177 10174 10172 10169 10167 10165 10163 10161 10159 10158 10156 10154 10153 10151 10149 10147 10145 10143 10141 10139 10136 10134 10133 10131 10129 10129 10128
10256 10254 10254 10253 10253 10252 10251 10249 10248 10247 10246 10244 10243 10242 10241 10239 10238 10237 10236 10234 10233 10231 10229 10227 10225 10224 10222 10220 10218 10216 10214 10213 10211 10209 10208 10206 10204 10203 10202 10201 10199 10198 10197 10196 10195 10194 10193 10193 10192 10191 10189 10188 10186 10184 10182 10181 10179 10178 10176 10174 10171 10168 10165 10162 10160 10158 10156 10154 10152 10150 10148 10146 10145 10143 10141 10139 10136 10134 10133 10130 10128 10126 10124 10123 10122 10121
10250 10249 10249 10248 10247 10246 10245 10244 10243 10242 10241 10239 10238 10237 10236 10235 10234 10233 10231 10229 10228 10226 10224 10223 10221 10219 10218 10216 10214 10212 10210 10209 10207 10206 10204 10203 10202 10200 10199 10198 10197 10196 10194 10193 10193 10191 10191 10190 10189 10188 10187 10185 10184 10181 10179 10177 10175 10173 10171 10170 10168 10164 10161 10157 10154 10153 10150 10148 10146 10144 10143 10141 10139 10138 10135 10133 10130 10128 10126 10123 10121 10119 10118 10116 10115 10114
10244 10244 10243 10243 10242 10241 10240 10239 10238 10237 10236 10234 10233 10233 10231 10230 10229 10228 10227 10226 10224 10223 10221 10219 10217 10216 10214 10213 10211 10209 10207 10206 10204 10203 10201 10200 10199 10198 10196 10196 10194 10193 10192 10191 10189 10189 10188 10187 10186 10185 10184 10182 10180 10178 10176 10174 10172 10169 10167 10165 10163 10160 10156 10153 10150 10147 10144 10143 10140 10139 10137 10136 10134 10132 10130 10128 10125 10122 10119 10117 10115 10113 10111 10110 10109 10108
10239 10239 10238 10238 10237 10236 10234 10234 10233 10232 10231 10230 10229 10228 10227 10226 10225 10224 10223 10221 10220 10219 10217 10215 10214 10212 10211 10209 10208 10206 10204 10203 10201 10200 10199 10198 10196 10195 10194 10193 10192 10191 10189 10188 10187 10186 10184 10183 10182 10181 10180 10179 10177 10175 10173 10171 10168 10166 10163 10161 10158 10156 10153 10149 10146 10143 10141 10138 10135 10133 10132 10130 10129 10127 10125 10123 10119 10117 10114 10111 10109 10106 10104 10103 10102 10101
10234 10234 10233 10233 10232 10231 10230 10229 10228 10227 10226 10225 10224 10224 10223 10222 10221 10220 10219 10218 10216 10215 10213 10211 10210 10209 10207 10206 10204 10203 10202 10201 10199 10198 10196 10195 10194 10193 10191 10190 10189 10188 10186 10185 10184 10183 10181 10180 10178 10177 10176 10174 10173 10171 10169 10167 10165 10163 10159 10157 10154 10151 10148 10145 10142 10139 10137 10134 10131 10129 10127 10126 10124 10123 10120 10118 10115 10111 10108 10105 10103 10100 10098 10096 10096 10094
10229 10229 10228 10228 10227 10226 10225 10224 10224 10223 10222 10221 10220 10219 10219 10218 10218 10216 10215 10214 10213 10211 10209 10208 10207 10206 10204 10203 10202 10201 10199 10198 10197 10196 10194 10193 10192 10191 10189 10188 10186 10185 10184 10183 10181 10179 10178 10177 10176 10174 10173 10171 10169 10167 10165 10163 10161 10159 10156 10154 10151 10147 10144 10141 10138 10135 10133 10130 10128 10125 10123 10121 10119 10118 10116 10113 10110 10106 10103 10099 10096 10094 10092 10090 10089 10088
10224 10224 10223 10223 10222 10221 10221 10220 10219 10218 10218 10217 10216 10216 10215 10214 10214 10213 10211 10210 10209 10208 10206 10205 10204 10203 10201 10200 10199 10198 10197 10196 10194 10194 10193 10191 10190 10188 10187 10186 10184 10183 10181 10180 10178 10177 10175 10174 10173 10171 10170 10168 10166 10163 10161 10159 10158 10156 10153 10150 10147 10143 10139 10136 10134 10131 10129 10126 10123 10121 10119 10117 10115 10113 10111 10108 10106 10102 10098 10094 10091 10088 10086 10085 10084 10083
10220 10219 10219 10218 10218 10217 10216 10216 10215 10214 10214 10213 10213 10212 10211 10211 10210 10209 10208 10207 10206 10204 10203 10202 10201 10199 10199 10198 10196 10196 10194 10193 10193 10191 10190 10189 10188 10186 10185 10184 10182 10181 10179 10178 10176 10174 10173 10171 10169 10168 10167 10165 10163 10160 10158 10156 10154 10151 10149 10146 10143 10139 10136 10133 10130 10127 10124 10122 10119 10117 10114 10113 10111 10109 10106 10104 10101 10098 10093 10089 10084 10082 10080 10079 10078 10078
10215 10214 10214 10214 10213 10213 10212 10211 10211 10210 10209 10209 10209 10209 10208 10208 10206 10206 10204 10203 10203 10201 10200 10199 10198 10197 10196 10195 10194 10193 10192 10191 10190 10189 10188 10186 10185 10184 10183 10181 10180 10178 10177 10175 10173 10171 10169 10167 10165 10164 10163 10163 10160 10157 10154 10152 10149 10148 10145 10142 10139 10136 10133 10129 10126 10123 10121 10118 10114 10112 10110 10108 10106 10104 10102 10099 10096 10093 10089 10084 10080 10076 10074 10073 10073 10073
10211 10210 10209 10209 10209 10208 10208 10207 10206 10206 10206 10206 10206 10205 10204 10204 10203 10202 10201 10200 10199 10198 10197 10196 10196 10194 10194 10193 10192 10191 10189 10189 10188 10186 10185 10184 10183 10181 10180 10178 10177 10176 10174 10172 10170 10168 10166 10163 10161 10159 10158 10158 10156 10154 10151 10148 10146 10143 10140 10138 10134 10132 10129 10126 10123 10120 10117 10114 10111 10108 10105 10103 10101 10099 10097 10094 10091 10088 10084 10080 10076 10072 10069 10068 10068 10067